星链-37130(STARLINK-37130)

导读

STARLINK-37130(NORAD编号68604)是美国SpaceX公司星链(Starlink)互联网星座的一员,属于Starlink v2.0 mini卫星平台,由SpaceX自主研发制造,运营于近地轨道,主要为全球提供宽带互联网接入服务。该卫星运行在倾角约43度的近地轨道,轨道高度维持在480公里左右,轨道周期约94.3分钟,每日绕地球飞行约15圈。作为星链巨型星座的组成部分,它延续了SpaceX低轨星座部署计划,目前状态正常,承担着全球网络覆盖的相关任务,助力星链实现全球泛在互联网接入的建设目标。

基本信息
目录编号:
68604
目录名称:
STARLINK-37130
国际标识:
2026-073C
轨道中心:
EARTH
卫星名称:
星链-37130
卫星全名:
星链-37130(STARLINK-37130)
卫星状态:
在轨 (已飞行159 天)
发射日期:
2026-04-05 UTC
国别 :
美国 (US)
星等 :
--
该卫星已列入 空间交会检测服务 Space Conjunction Data Service (SCDS) ,当前飞行风险评估等级: 无高风险
轨道信息
数据来源 国际轨道数据 AOE轨道数据
星历时间 2026-09-11T08:27:43+0800
14小时前
查看轨道信息
2026-09-07T02:00:00+0800
4天前
查看轨道信息
半长轴 6843.644km 6843.608km
偏心率 0.0001564 0.0001867
轨道倾角 97.285° 97.283°
近地点辐角 19.654° 98.452°
升交点赤经 92.108° 87.898°
平近点角 340.476° 109.153°
近地点 464.436km 464.193km
远地点 466.578km 466.749km
周期 93.905分钟 93.905分钟
每日圈数 15.334573 15.334694
详细信息
固有亮度:
5
最大亮度:
2.5
卫星平台:
Starlink V1.0
覆盖范围:
全球
运营商:
太空探索技术公司
运营商所在国:
美国
制造商(研发单位):
太空探索技术公司
制造商所在国:
美国
使用方式:
暂无
卫星简介
Starlink 计划是 SpaceX 推出的全球卫星互联网项目,通过发射低轨道卫星,为全球尤其是偏远地区提供高速、低延迟的互联网服务。自 2019 年起,Starlink 已部署数千颗卫星,旨在缩小全球数字鸿沟,推动互联网普及。该项目还为军事、航空等行业提供通信支持,带来广泛经济效益。
2D轨道图
3D轨道图
轨道高度分析图
轨道倾角分析图
轨道综合分析图
查看轨道综合分析图
交会数据列表
事件ID 空间交会对象 最接近时刻(TCA) 交会距离 交会风险概率(CRP) 交会风险指数(CRI) 操作
CDM_260912-020405-171906-860421
2026-09-12T
02:04:08+0000
1.336 km
极远距离
8.840926E-6 低风险 0.54
CDM_260911-051304-868706-860422
2026-09-11T
05:13:24+0000
2.611 km
极远距离
1.624701E-6 低风险 0.39
CDM_260912-171104-737106-860421
2026-09-12T
17:11:40+0000
2.752 km
极远距离
1.499167E-6 低风险 0.39
CDM_260906-115005-342106-860422
2026-09-06T
11:50:17+0000
2.796 km
极远距离
1.177789E-6 低风险 0.36
CDM_260913-132105-146206-860421
2026-09-13T
13:21:29+0000
2.561 km
极远距离
1.162257E-6 低风险 0.36
与全量物体交会距离演化趋势
与全量物体交会风险概率演化趋势